{"data":{"norad_id":40664,"intl_designator":"2015-026B","name":"SKY MEXICO-1","alt_names":[],"object_type":"PAYLOAD","status":"ACTIVE","operator":null,"country":"MEX","launch_date":"2015-05-27","launch_site_code":"FRGUI","launch_vehicle":null,"mission":null,"orbit_class":"UNKNOWN","rcs_meters":75.685,"size_class":null,"mass_kg":null,"dimensions":null,"purposes":["comms"],"wikipedia_slug":null,"has_3d_model":false,"image_url":null,"decayed_at":null,"tle_current":{"epoch":"2026-09-20T04:34:30.179712Z","epoch_age_seconds":41207,"freshness":"FRESH","line1":"1 40664U 15026B   26263.19062708 -.00000239  00000+0  00000+0 0  9999","line2":"2 40664   0.0163 223.9562 0002099 310.9517 174.0248  1.00271422 41401","mean_motion":1.00271422,"eccentricity":0.0002099,"inclination_deg":0.0163,"raan_deg":223.9562,"arg_perigee_deg":310.9517,"mean_anomaly_deg":174.0248,"bstar":0,"rev_number":4140,"period_min":1436.1021029501,"perigee_km":35777.846324976,"apogee_km":35795.547122174,"semimajor_km":42164.833723575,"source":"CELESTRAK","updated_at":"2026-09-20T09:00:35.521993Z"}}}